Content
SEND FEEDBACK

Daily
Averages
Monthly
Summary
United States of America

GREENSBURG, INDIANA


Home > North America > United States > Indiana
Elevation: 289 meters     Latitude: 39 20N     Longitude: 085 28W

WEATHER
 
SELECT A DAY
Number of Records: 172,997;   Date Range: 10/15/98 - 8/12/14
 
SHARE

PRINT THIS DATA

[ ← Previous Day ]
WEATHER ALMANAC - 13 MAY, 2014
[ Next Day → ]
[ °F ]   °C
Weather ElementAverageHighLow
Temperature21.8 °C29.4 °C (1:53 pm)16.7 °C (11:53 pm)
Dewpoint17.7 °C19.4 °C (9:53 am)14.4 °C (11:53 pm)
Humidity78.3 %90 % (10:26 pm)51 % (1:53 pm)
Barometer1016.6 hPa1019.3 hPa (10:26 pm)1014.2 hPa (3:53 am)
Wind Speed23.5 km/h46.3 km/h (2:44 pm)
Wind Gust70.3 km/h (2:44 pm)
Weather ElementAverage
Visibility13.5 km
Wind DirectionWSW (261.2 °)

Weather ElementTotal
Precipitation36.58 mm
Cooling Degree Days4.7 (Base 18.3)
Growing Degree Days13.1 (Base 10)
Averaged from 34 records on 13 May, 2014
WEATHER CONDITIONS BREAKOUT
WIND DIRECTION BREAKOUT
WEATHER BY HOUR - 13 MAY, 2014
[ °F ]   °C
Local TimeTemperatureDewpointHumidityBarometerVisibilityWind DirectionWind SpeedGust SpeedPrecipitationEventsConditions
2:53 AM21.7 °C18.3 °C81 %1014.9 hPa16.1 kmSSE (160°)18.5 km/hClear
3:53 AM22.8 °C18.3 °C76 %1014.2 hPa16.1 kmSouth (180°)20.4 km/hClear
4:53 AM22.2 °C18.3 °C78 %1014.2 hPa16.1 kmSouth (180°)25.9 km/hPartly Cloudy
5:53 AM21.7 °C18.3 °C81 %1014.6 hPa16.1 kmSouth (190°)18.5 km/hClear
6:53 AM21.7 °C18.3 °C81 %1014.9 hPa16.1 kmSouth (180°)18.5 km/hMostly Cloudy
7:53 AM22.8 °C18.3 °C76 %1015.6 hPa16.1 kmSouth (180°)22.2 km/hOvercast
9:02 AM23.9 °C18.9 °C73 %1016.3 hPa16.1 kmSouth (190°)25.9 km/h37 km/hScattered Clouds
9:53 AM24.4 °C19.4 °C74 %1015.6 hPa16.1 kmSSW (200°)29.6 km/hMostly Cloudy
12:53 PM27.8 °C18.9 °C58 %1015.6 hPa16.1 kmSouth (190°)29.6 km/h50.1 km/hMostly Cloudy
1:53 PM29.4 °C18.3 °C51 %1015.2 hPa16.1 kmSouth (190°)38.9 km/h55.5 km/hScattered Clouds
2:44 PM23.9 °C16.1 °C62 %1016.6 hPa16.1 kmWest (260°)46.3 km/h70.3 km/hThunderstormMostly Cloudy
2:49 PM22 °C18 °C78 %1016.9 hPa2.4 kmWest (260°)38.9 km/h61.2 km/h3.05 mmRain-ThunderstormThunderstorms and Rain
2:53 PM21.1 °C18.3 °C84 %1016.3 hPa0.8 kmWest (260°)33.3 km/h59.2 km/h6.86 mmRain-ThunderstormHeavy Thunderstorms and Rain
3:03 PM21.1 °C18.3 °C84 %1016.6 hPa3.2 kmWest (270°)27.8 km/h1.78 mmRain-ThunderstormHeavy Thunderstorms and Rain
3:11 PM21.7 °C18.9 °C84 %1016.9 hPa11.3 kmWest (260°)27.8 km/h2.03 mmRain-ThunderstormLight Rain
3:53 PM22.8 °C19.4 °C81 %1015.9 hPa16.1 kmWSW (240°)11.1 km/h2.29 mmThunderstormPartly Cloudy
4:02 PM23.9 °C19.4 °C76 %1016.3 hPa16.1 kmWSW (250°)18.5 km/hClear
4:53 PM25.6 °C19.4 °C68 %1015.6 hPa16.1 kmWSW (250°)22.2 km/hPartly Cloudy
5:53 PM25.6 °C18.3 °C64 %1015.6 hPa16.1 kmWest (260°)16.7 km/hPartly Cloudy
6:53 PM25 °C17.8 °C64 %1015.2 hPa16.1 kmWest (270°)13 km/hPartly Cloudy
7:44 PM21.7 °C18.3 °C81 %1015.9 hPa4 kmNW (320°)25.9 km/h1.52 mmRain-ThunderstormHeavy Rain
7:53 PM21.7 °C18.3 °C81 %1016.3 hPa4 kmNW (310°)24.1 km/h2.54 mmRain-ThunderstormThunderstorms and Rain
8:14 PM21.1 °C18.3 °C84 %1016.9 hPa12.9 kmNW (310°)33.3 km/h40.7 km/h1.52 mmRain-ThunderstormLight Thunderstorms and Rain
8:22 PM20.6 °C17.8 °C84 %1017.6 hPa16.1 kmWNW (290°)25.9 km/h40.7 km/h1.52 mmThunderstormThunderstorm
8:34 PM20 °C17.2 °C84 %1017.6 hPa16.1 kmNW (310°)18.5 km/h1.52 mmThunderstormThunderstorm
8:41 PM20 °C17.2 °C84 %1017.6 hPa16.1 kmNW (320°)25.9 km/h1.52 mmRainLight Rain
8:53 PM20 °C16.7 °C81 %1017.6 hPa16.1 kmNW (310°)18.5 km/h1.52 mmRainLight Rain
9:17 PM19.4 °C16.7 °C84 %1018.6 hPa14.5 kmNW (310°)16.7 km/h0.51 mmRainLight Rain
9:42 PM18.9 °C16.7 °C87 %1019 hPa9.7 kmNW (320°)18.5 km/h2.54 mmRainLight Rain
9:53 PM18.3 °C16.1 °C87 %1019 hPa8 kmNNW (330°)18.5 km/h3.56 mmRainRain
10:26 PM17.2 °C15.6 °C90 %1019.3 hPa16.1 kmNNW (340°)20.4 km/h0.76 mmOvercast
10:45 PM17.2 °C15 °C87 %1019.3 hPa16.1 kmNNW (330°)14.8 km/h0.76 mmRainLight Rain
10:53 PM17.2 °C15 °C87 %1018.6 hPa16.1 kmNNW (330°)16.7 km/h0.76 mmMostly Cloudy
11:53 PM16.7 °C14.4 °C86 %1019 hPa16.1 kmNNW (330°)16.7 km/h0 mmPartly Cloudy
Hourly data recorded from KGEZ, located 0 kilometers away from Greensburg, Indiana







STORIES FROM OUR PARTNERS